Delta Virtual Airport Information Service

St. Louis Lambert International Airport

ICAO: KSTL Country: United States
Latitude: 38.7487 Longitude: -90.37
Latest Arrival : AAL1062 (KORD-KSTL) Latest Departure : AAL1381 (B) (KSTL-KDFW)


WX CaptureLIVE
Data provided by noaa.gov | Fetched at 18:08:45

METAR : KSTL 172151Z 01008KT 10SM FEW055 FEW070 28/15 A3006 RMK AO2 SLP169 T02830150

TAF : KSTL 172151Z 01008KT 10SM FEW055 FEW070 28/15 A3006 RMK AO2 SLP169 T02830150


Runway Data for KSTL
Data provided by openaviationdata.com

Runway ID Mag Var Hdg Length Elevation Surface ILS Freq ILS Id ILS Slope
6 0 62° 7595 ft 552 ft Concrete 110.3 IJAK 3
12L 0 122° 8996 ft 552 ft Concrete 110.1 IABW 0
12R 0 122° 11032 ft 552 ft Concrete 109.7 ILMR 3
24 0 242° 7595 ft 552 ft Concrete 110.3 ISTL 3
30L 0 302° 11032 ft 552 ft Concrete 110.55 IFXD 0
30R 0 302° 8996 ft 552 ft Concrete 111.3 ISJW 3

St. Louis Lambert International Airport, United States
Use only for reference purposes



Not for navigational purposes.